星链-33927 (STARLINK-33927)

导读

STARLINK-33927是美国于2025年5月14日发射的星链系列卫星,隶属于SpaceX公司打造的星链卫星互联网星座项目。该系列卫星旨在为全球范围内用户提供低延迟、高速率的宽带互联网服务,填补偏远地区网络覆盖空白,此次发射是美国持续推进星链星座组网建设的组成部分。

Basic Information
目录编号:
64001
目录名称:
STARLINK-33927
国际标识:
2025-101H
轨道中心:
EARTH
卫星名称:
星链-33927
卫星全名:
星链-33927 (STARLINK-33927)
卫星状态:
在轨 (已飞行485 天)
发射日期:
2025-05-14 UTC
国别 :
美国 (US)
星等 :
--
This satellite is enrolled in the Space Conjunction Data Service (SCDS) and the current flight risk assessment level is: No High Risk
Orbit Information
数据来源 国际轨道数据
星历时间: 2026-09-11T00:34:39+0800
1天前
查看轨道信息
半长轴: 6861.143km
偏心率: 0.0000978
轨道倾角: 43.002°
近地点辐角 266.518°
升交点赤经 33.615°
平近点角 93.556°
近地点: 482.334km
远地点: 483.678km
周期: 94.266分钟
每日圈数: 15.275944
Detailed Information
固有亮度:
5
最大亮度:
2.5
卫星平台:
Starlink V1.0
覆盖范围:
全球
运营商:
太空探索技术公司
运营商所在国:
美国
制造商(研发单位):
太空探索技术公司
制造商所在国:
美国
使用方式:
暂无
Satellite Introduction
Starlink 计划是 SpaceX 推出的全球卫星互联网项目,通过发射低轨道卫星,为全球尤其是偏远地区提供高速、低延迟的互联网服务。自 2019 年起,Starlink 已部署数千颗卫星,旨在缩小全球数字鸿沟,推动互联网普及。该项目还为军事、航空等行业提供通信支持,带来广泛经济效益。
2D Orbit Map
3D Orbit Map
Orbit Altitude Analysis Chart
Orbit Inclination Analysis Chart
Orbit Comprehensive Analysis Chart
View Comprehensive Chart
Conjunction Data List
Event ID Objects TCA Miss Dist (km) Collision Risk Probability Collision Risk Index (CRI) Action
CDM_260912-130405-918906-400121
2026-09-12T
13:04:28+0000
0.607 km
远距离
8.323947E-5 中风险 0.73
CDM_260913-193705-691506-400121
2026-09-13T
19:37:44+0000
0.813 km
远距离
2.93496E-5 中风险 0.64
CDM_260913-130505-710606-400122
2026-09-13T
13:05:54+0000
0.932 km
远距离
1.929044E-5 中风险 0.61
CDM_260914-071305-546006-400121
2026-09-14T
07:13:39+0000
0.782 km
远距离
1.921342E-5 中风险 0.61
CDM_260913-111005-923506-400121
2026-09-13T
11:10:00+0000
1.021 km
极远距离
1.903819E-5 中风险 0.61
CDM_260914-020405-923506-400121
2026-09-14T
02:04:27+0000
1.037 km
极远距离
1.803272E-5 中风险 0.6
CDM_260913-093505-923506-400121
2026-09-13T
09:35:51+0000
1.165 km
极远距离
1.205923E-5 中风险 0.57
CDM_260913-035805-918906-400121
2026-09-13T
03:58:55+0000
1.121 km
极远距离
1.144056E-5 中风险 0.56
CDM_260913-214305-710606-400121
2026-09-13T
21:43:45+0000
1.138 km
极远距离
9.675684E-6 低风险 0.55
CDM_260913-022405-918906-400121
2026-09-13T
02:24:46+0000
1.238 km
极远距离
8.133917E-6 低风险 0.53
Miss Distance Evolution Trend with All Objects
Collision Probability Evolution Trend with All Objects